User: anonymous   Login
Location: Wayah Bald
(35.1806°N, 83.5603°W)
Time: 23:02:24
(UTC-05:00)
Language:

Meteor 1-27 Rocket - Orbit

View from above orbital plane
View from above orbital plane
View from above satellite
View from above satellite

Ground track
Ground track

The orbit data is extracted from the following two-line orbital elements,

1 09904U 77024B   15054.96291480  .00000101  00000-0  52469-4 0  9998
2 09904 081.2607 225.5465 0055057 183.9443 176.1300 14.06773920944106
Epoch (UTC): 23 February 2015 23:06:35
Eccentricity: 0.0055057
inclination: 81.2607°
perigee height: 830 km
apogee height: 910 km
right ascension of ascending node: 225.5465°
argument of perigee: 183.9443°
revolutions per day: 14.06773920
mean anomaly at epoch: 176.1300°
orbit number at epoch: 94410

The dashed part of the orbit path shows where the satellite is in the earth's shadow,  

DLR